When you browse on this site, cookies collect data to enhance your experience and personalize the content and advertising you see.
Visit our Privacy Policy to learn more. By continuing to use the site, you agree to this use of cookies and data.
  • In Portugal
  • List of Countries
  • For 7 days
  • Water Temperature
  • Satellite Maps
  • Weather Map
  • Weather Widgets
  • user-avatar
    Login

    Hourly Weather Sliven

    Today, 22 January, Tuesday

    Time Temperature Precipitation Wind Pressure Humidity
    00:00 -1°C° 0 mm 2 mps 735 mmHg 86%
    01:00 -1°C° 0 mm 2 mps 735 mmHg 86%
    02:00 -2°C° 0 mm 2 mps 735 mmHg 86%
    03:00 -2°C° 0 mm 2 mps 735 mmHg 88%
    04:00 -2°C° 0 mm 2 mps 734 mmHg 89%
    05:00 -2°C° 0 mm 2 mps 734 mmHg 91%
    06:00 -1°C° 0 mm 2 mps 734 mmHg 91%
    07:00 -1°C° 0 mm 2 mps 734 mmHg 91%
    08:00 -1°C° 0 mm 2 mps 734 mmHg 91%
    09:00 +1°C° 0.2 mm 2 mps 733 mmHg 90%
    10:00 +2°C° 0.2 mm 2 mps 733 mmHg 88%
    11:00 +2°C° 0.2 mm 2 mps 733 mmHg 86%
    12:00 +3°C° 0.1 mm 2 mps 733 mmHg 86%
    13:00 +3°C° 0.1 mm 2 mps 732 mmHg 86%
    14:00 +2°C° 0.1 mm 3 mps 731 mmHg 86%
    15:00 +3°C° 0.1 mm 2 mps 731 mmHg 88%
    16:00 +3°C° 0.1 mm 2 mps 730 mmHg 90%
    17:00 +3°C° 0.1 mm 2 mps 730 mmHg 92%
    18:00 +3°C° 0.2 mm 2 mps 729 mmHg 93%
    19:00 +2°C° 0.2 mm 3 mps 729 mmHg 94%
    20:00 +3°C° 0.2 mm 3 mps 728 mmHg 95%
    21:00 +2°C° 0 mm 3 mps 728 mmHg 96%
    22:00 +2°C° 0 mm 3 mps 727 mmHg 96%
    23:00 +2°C° 0 mm 3 mps 727 mmHg 96%

    Tomorrow, 23 January, Wednesday

    Time Temperature Precipitation Wind Pressure Humidity
    00:00 +3°C° 0.3 mm 3 mps 726 mmHg 96%
    01:00 +3°C° 0.3 mm 3 mps 725 mmHg 96%
    02:00 +3°C° 0.3 mm 3 mps 725 mmHg 96%
    03:00 +4°C° 0.4 mm 2 mps 724 mmHg 97%
    04:00 +4°C° 0.4 mm 2 mps 723 mmHg 97%
    05:00 +5°C° 0.4 mm 2 mps 723 mmHg 97%
    06:00 +5°C° 0 mm 2 mps 723 mmHg 97%
    07:00 +5°C° 0 mm 2 mps 723 mmHg 97%
    08:00 +6°C° 0 mm 2 mps 723 mmHg 96%
    09:00 +6°C° 0 mm 2 mps 723 mmHg 94%
    10:00 +7°C° 0 mm 2 mps 723 mmHg 92%
    11:00 +8°C° 0 mm 2 mps 723 mmHg 90%
    12:00 +9°C° 0 mm 3 mps 723 mmHg 85%
    13:00 +9°C° 0 mm 3 mps 723 mmHg 80%
    14:00 +10°C° 0 mm 3 mps 722 mmHg 74%
    15:00 +9°C° 0 mm 3 mps 722 mmHg 77%
    16:00 +9°C° 0 mm 2 mps 722 mmHg 80%
    17:00 +8°C° 0 mm 2 mps 722 mmHg 83%
    18:00 +8°C° 0 mm 2 mps 722 mmHg 86%
    19:00 +7°C° 0 mm 3 mps 722 mmHg 90%
    20:00 +7°C° 0 mm 3 mps 722 mmHg 93%
    21:00 +7°C° 0.1 mm 3 mps 722 mmHg 94%
    22:00 +6°C° 0.1 mm 4 mps 722 mmHg 94%
    23:00 +6°C° 0.1 mm 4 mps 722 mmHg 95%

    Day after tomorrow, 24 January, Thursday

    Time Temperature Precipitation Wind Pressure Humidity
    00:00 +6°C° 0.3 mm 4 mps 722 mmHg 95%
    01:00 +6°C° 0.3 mm 4 mps 721 mmHg 96%
    02:00 +7°C° 0.3 mm 3 mps 721 mmHg 97%
    03:00 +7°C° 0.7 mm 3 mps 720 mmHg 97%
    04:00 +7°C° 0.7 mm 3 mps 720 mmHg 97%
    05:00 +7°C° 0.7 mm 3 mps 719 mmHg 97%
    06:00 +7°C° 0.8 mm 3 mps 719 mmHg 97%
    07:00 +6°C° 0.8 mm 4 mps 719 mmHg 96%
    08:00 +6°C° 0.8 mm 4 mps 719 mmHg 96%
    09:00 +6°C° 1.2 mm 4 mps 719 mmHg 95%
    10:00 +6°C° 1.2 mm 4 mps 719 mmHg 93%
    11:00 +6°C° 1.2 mm 4 mps 719 mmHg 92%
    12:00 +6°C° 2.6 mm 4 mps 719 mmHg 93%
    13:00 +7°C° 2.6 mm 3 mps 719 mmHg 93%
    14:00 +7°C° 2.6 mm 3 mps 718 mmHg 94%
    15:00 +7°C° 0.2 mm 3 mps 718 mmHg 93%
    16:00 +7°C° 0.2 mm 3 mps 718 mmHg 92%
    17:00 +7°C° 0.2 mm 2 mps 718 mmHg 91%
    18:00 +7°C° 0.3 mm 2 mps 718 mmHg 92%
    19:00 +6°C° 0.3 mm 2 mps 719 mmHg 94%
    20:00 +6°C° 0.3 mm 2 mps 719 mmHg 95%
    21:00 +6°C° 0.9 mm 2 mps 719 mmHg 95%
    22:00 +6°C° 0.9 mm 2 mps 719 mmHg 95%
    23:00 +6°C° 0.9 mm 2 mps 720 mmHg 95%

    25 January, Friday

    Time Temperature Precipitation Wind Pressure Humidity
    00:00 +6°C° 1.6 mm 2 mps 720 mmHg 95%
    01:00 +6°C° 1.6 mm 2 mps 720 mmHg 96%
    02:00 +7°C° 1.6 mm 1 mps 720 mmHg 96%
    03:00 +7°C° 0.2 mm 1 mps 720 mmHg 96%
    04:00 +6°C° 0.2 mm 1 mps 720 mmHg 96%
    05:00 +5°C° 0.2 mm 0 mps 720 mmHg 96%
    06:00 +5°C° 0 mm 0 mps 721 mmHg 96%
    07:00 +5°C° 0 mm 0 mps 721 mmHg 96%
    08:00 +6°C° 0 mm 1 mps 722 mmHg 95%
    09:00 +6°C° 0.3 mm 1 mps 722 mmHg 95%
    10:00 +7°C° 0.3 mm 1 mps 722 mmHg 95%
    11:00 +6°C° 0.3 mm 2 mps 722 mmHg 95%
    12:00 +6°C° 4.2 mm 2 mps 722 mmHg 95%
    13:00 +6°C° 4.2 mm 2 mps 722 mmHg 96%
    14:00 +5°C° 4.2 mm 3 mps 722 mmHg 97%
    15:00 +5°C° 1.9 mm 3 mps 722 mmHg 96%
    16:00 +6°C° 1.9 mm 2 mps 721 mmHg 96%
    17:00 +7°C° 1.9 mm 2 mps 721 mmHg 95%
    18:00 +7°C° 0.8 mm 3 mps 721 mmHg 95%
    19:00 +7°C° 0.8 mm 3 mps 721 mmHg 96%
    20:00 +6°C° 0.8 mm 4 mps 721 mmHg 96%
    21:00 +6°C° 0.8 mm 4 mps 721 mmHg 96%
    22:00 +6°C° 0.8 mm 4 mps 720 mmHg 96%
    23:00 +6°C° 0.8 mm 5 mps 720 mmHg 96%

    26 January, Saturday

    Time Temperature Precipitation Wind Pressure Humidity
    00:00 +6°C° 2.2 mm 4 mps 720 mmHg 96%
    01:00 +6°C° 2.2 mm 4 mps 720 mmHg 96%
    02:00 +6°C° 2.2 mm 4 mps 720 mmHg 96%
    03:00 +5°C° 1.1 mm 3 mps 720 mmHg 96%
    04:00 +5°C° 1.1 mm 3 mps 720 mmHg 97%
    05:00 +6°C° 1.1 mm 2 mps 720 mmHg 97%
    06:00 +7°C° 0.1 mm 1 mps 720 mmHg 97%
    07:00 +7°C° 0.1 mm 1 mps 720 mmHg 97%
    08:00 +6°C° 0.1 mm 1 mps 721 mmHg 97%
    09:00 +7°C° 0 mm 1 mps 721 mmHg 94%
    10:00 +6°C° 0 mm 2 mps 721 mmHg 91%
    11:00 +5°C° 0 mm 3 mps 722 mmHg 88%
    12:00 +5°C° 0 mm 3 mps 721 mmHg 85%
    13:00 +5°C° 0 mm 4 mps 721 mmHg 82%
    14:00 +5°C° 0 mm 4 mps 721 mmHg 79%
    15:00 +4°C° 0.1 mm 4 mps 721 mmHg 80%
    16:00 +3°C° 0.1 mm 4 mps 722 mmHg 82%
    17:00 +1°C° 0.1 mm 4 mps 722 mmHg 83%
    18:00 +1°C° 0 mm 4 mps 722 mmHg 83%
    19:00 +1°C° 0 mm 4 mps 722 mmHg 84%
    20:00 +1°C° 0 mm 3 mps 723 mmHg 85%
    21:00 +1°C° 0.1 mm 3 mps 723 mmHg 85%
    22:00 +1°C° 0.1 mm 3 mps 723 mmHg 85%
    23:00 +1°C° 0.1 mm 3 mps 723 mmHg 86%

    27 January, Sunday

    Time Temperature Precipitation Wind Pressure Humidity
    00:00 +1°C° 0.2 mm 3 mps 723 mmHg 86%
    01:00 +1°C° 0.2 mm 3 mps 723 mmHg 86%
    02:00 +1°C° 0.2 mm 2 mps 723 mmHg 86%
    03:00 +1°C° 0 mm 2 mps 723 mmHg 87%
    04:00 +1°C° 0 mm 2 mps 723 mmHg 87%
    05:00 +1°C° 0 mm 2 mps 723 mmHg 88%
    06:00 +1°C° 0 mm 2 mps 723 mmHg 88%
    07:00 +2°C° 0 mm 1 mps 723 mmHg 88%
    08:00 +2°C° 0 mm 1 mps 723 mmHg 89%
    09:00 +3°C° 0 mm 1 mps 724 mmHg 85%
    10:00 +3°C° 0 mm 1 mps 724 mmHg 82%
    11:00 +4°C° 0 mm 1 mps 724 mmHg 78%
    12:00 +5°C° 0 mm 1 mps 724 mmHg 77%
    13:00 +6°C° 0 mm 1 mps 724 mmHg 75%
    14:00 +7°C° 0 mm 1 mps 724 mmHg 74%
    15:00 +6°C° 0 mm 1 mps 724 mmHg 77%
    16:00 +6°C° 0 mm 1 mps 724 mmHg 80%
    17:00 +6°C° 0 mm 1 mps 724 mmHg 83%
    18:00 +5°C° 0 mm 1 mps 725 mmHg 86%
    19:00 +5°C° 0 mm 1 mps 725 mmHg 89%
    20:00 +5°C° 0 mm 1 mps 725 mmHg 91%
    21:00 +4°C° 0 mm 1 mps 726 mmHg 92%
    22:00 +4°C° 0 mm 1 mps 726 mmHg 93%
    23:00 +4°C° 0 mm 1 mps 726 mmHg 94%
    Show more